Weather History for Provo, UT

Change the Weather History Date:

Friday, August 24, 2012

  Actual Average Record
Temperature  
Mean Temperature 72 °F -  
Max Temperature 84 °F 84 °F 95 °F (2008)
Min Temperature 60 °F 55 °F 44 °F (1992)
Cooling Degree Days 7    
Growing Degree Days 22 (Base 50)    
Moisture  
Dew Point 53 °F    
Average Humidity 53    
Maximum Humidity 72    
Minimum Humidity 30    
Precipitation  
Precipitation 0.00 in - - ()
Sea Level Pressure  
Sea Level Pressure 30.00 in    
Wind  
Wind Speed 6 mph (SE)    
Max Wind Speed 13 mph    
Max Gust Speed 17 mph    
Visibility 12 miles    
Events Thunderstorm    
Averages and records for this station are not official NWS values.
T = Trace of Precipitation, MM = Missing Value Source: NWS Daily Summary

Daily Weather History Graph

Daily Weather History Graph

Search for Another Location

Airport:

Trip Planner

Search our weather history database for the weather conditions in past years. The results will help you decide how hot, cold, wet, or windy it might be!

Date:

Astronomy

Aug. 24, 2012 Rise Set
Actual Time 6:47 AM MDT 8:10 PM MDT
Civil Twilight 6:18 AM MDT 8:38 PM MDT
Nautical Twilight 5:44 AM MDT 9:12 PM MDT
Astronomical Twilight 5:08 AM MDT 9:48 PM MDT
Moon 2:44 PM MDT (8/24) No Moon Set
Length of Visible Light 14h 19m
Length of Day
13h 22m
First Quarter, 52% of the Moon is Illuminated
Aug 24
First Quarter
Aug 31
Full
Sep 8
Last Quarter
Sep 15
New
Sep 22
First Quarter

Hourly Weather History & Observations

Time (MDT) Temp. Heat Index Dew Point Humidity Pressure Visibility Wind Dir Wind Speed Gust Speed Precip Events Conditions
12:15 AM 68.0 °F - 53.6 °F 60% 29.99 in 10.0 mi East 3.5 mph - N/A   Clear
12:35 AM 68.0 °F - 53.6 °F 60% 29.99 in 10.0 mi SE 6.9 mph - N/A   Clear
12:55 AM 69.8 °F - 53.6 °F 56% 29.99 in 10.0 mi ESE 8.1 mph - N/A   Clear
1:35 AM 69.8 °F - 53.6 °F 56% 29.99 in 10.0 mi ESE 5.8 mph - N/A   Clear
2:15 AM 66.2 °F - 53.6 °F 64% 30.00 in 10.0 mi South 3.5 mph - N/A   Clear
2:35 AM 64.4 °F - 51.8 °F 64% 30.00 in 10.0 mi SSE 5.8 mph - N/A   Clear
2:55 AM 64.4 °F - 53.6 °F 68% 30.00 in 10.0 mi SE 8.1 mph - N/A   Clear
3:35 AM 66.2 °F - 53.6 °F 64% 30.00 in 10.0 mi ESE 9.2 mph - N/A   Clear
3:55 AM 66.2 °F - 53.6 °F 64% 30.00 in 10.0 mi SE 8.1 mph - N/A   Clear
4:15 AM 64.4 °F - 53.6 °F 68% 30.01 in 10.0 mi East 6.9 mph - N/A   Clear
4:35 AM 62.6 °F - 51.8 °F 68% 30.01 in 10.0 mi ESE 4.6 mph - N/A   Clear
5:36 AM 62.6 °F - 53.6 °F 72% 30.01 in 10.0 mi SE 6.9 mph - N/A   Clear
5:55 AM 60.8 °F - 51.8 °F 72% 30.02 in 10.0 mi ESE 4.6 mph - N/A   Clear
6:15 AM 60.8 °F - 51.8 °F 72% 30.02 in 10.0 mi East 3.5 mph - N/A   Clear
6:50 AM 62.6 °F - 51.8 °F 68% 30.03 in 15.0 mi SE 5.8 mph - N/A   Partly Cloudy
7:55 AM 64.4 °F - 53.6 °F 68% 30.05 in 15.0 mi ESE 3.5 mph - N/A   Partly Cloudy
8:47 AM 69.8 °F - 53.6 °F 56% 30.05 in 15.0 mi SE 12.7 mph - N/A   Clear
9:48 AM 73.4 °F - 53.6 °F 50% 30.06 in 15.0 mi SSE 8.1 mph - N/A   Clear
10:56 AM 75.2 °F - 55.4 °F 50% 30.05 in 15.0 mi ESE 4.6 mph - N/A   Clear
11:57 AM 80.6 °F 80.5 °F 55.4 °F 42% 30.04 in 15.0 mi ESE 4.6 mph - N/A   Clear
12:47 PM 82.4 °F 81.7 °F 55.4 °F 39% 30.02 in 15.0 mi ESE 3.5 mph - N/A   Partly Cloudy
1:57 PM 84.2 °F 82.8 °F 53.6 °F 35% 30.00 in 15.0 mi Variable 6.9 mph - N/A   Partly Cloudy
2:54 PM 84.2 °F - 50.0 °F 30% 29.99 in 15.0 mi Variable 3.5 mph - N/A   Scattered Clouds
3:51 PM 80.6 °F 80.5 °F 55.4 °F 42% 29.98 in 15.0 mi SSW 11.5 mph 17.3 mph N/A   Scattered Clouds
4:27 PM 82.4 °F 81.4 °F 53.6 °F 37% 29.97 in 15.0 mi SW 5.8 mph - N/A Thunderstorm Thunderstorm
4:58 PM 80.6 °F 80.5 °F 55.4 °F 42% 29.96 in 15.0 mi SSW 11.5 mph - N/A   Scattered Clouds
5:47 PM 82.4 °F - 51.8 °F 35% 29.95 in 15.0 mi SW 3.5 mph - N/A   Partly Cloudy
6:57 PM 80.6 °F 80.5 °F 55.4 °F 42% 29.94 in 15.0 mi Calm Calm - N/A   Partly Cloudy
7:54 PM 78.8 °F - 51.8 °F 39% 29.95 in 15.0 mi WNW 8.1 mph - N/A   Partly Cloudy
8:47 PM 78.8 °F - 48.2 °F 34% 29.96 in 15.0 mi WNW 8.1 mph - N/A   Partly Cloudy
9:15 PM 77.0 °F - 46.4 °F 34% 29.97 in 10.0 mi NNW 5.8 mph - N/A   Clear
9:35 PM 71.6 °F - 48.2 °F 43% 29.97 in 10.0 mi NNE 5.8 mph - N/A   Clear